091  
ASUS42 KKEY 282210  
RWRKEY  
 
FLORIDA REGIONAL WEATHER ROUNDUP FOR THE FLORIDA KEYS  
NATIONAL WEATHER SERVICE KEY WEST FLORIDA  
600 PM EDT SUN AUG 28 2016  
   
..SOUTH FLORIDA AND THE KEYS
 
 
 
CITY SKY/WX TMP DP RH WIND PRES REMARKS
 
FORT MYERS CLOUDY 81 76 84 E10 29.85F  
SW REGIONAL AP CLOUDY 84 74 71 E12 29.86F HX 91  
NAPLES CLOUDY 87 75 67 E13 29.84S HX 96  
MIAMI CLOUDY 85 75 72 E18 29.88R HX 93  
WEST KENDALL MOSUNNY 81 76 84 E13 29.87R  
HOMESTEAD MOSUNNY 84 75 74 E12 29.87R HX 92  
MARATHON LGT RAIN 81 77 88 SE10G20 29.82F  
BOCA CHICA NAS NOT AVBL  
KEY WEST INTL MOSUNNY 84 77 79 SE20 29.79F HX 94  
   
..INTERNATIONAL WEATHER
 
 
 
CITY SKY/WX TMP DP RH WIND PRES REMARKS
 
NASSAU BAHAMAS PTSUNNY 86 79 79 E5 29.92R HX 99  
CANCUN MEXICO PTSUNNY 81 77 89 SW5 29.81F  
COZUMEL MEXICO PTSUNNY 79 77 94 CALM 29.83F  
 
ADJACENT COASTAL WATERS...  
 
STATION/POSITION TIME SKY/WX TEMP WIND PRES WAVE
 
AIR SEA DIR/SP/G HT/PER  
(UTC) (F) (DEG/KT/KT) (MB) (FT/S)  
PULASKI SHOAL LI 2200 84 70/ 21/ 23 1009.0S  
SAND KEY 2150 82 130/ 21/ 25 1008.8F  
LONG KEY 2100 82 87 140/ 17/ 20 1010.4R  
FOWEY ROCKS 2200 83 86 110/ 16/ 17 1012.1S  
 

 
 
 
CLICK HERE TO GO TO PREVIOUS BULLETINS.

The Nexlab FL Page Main Text Page